When you browse on this site, cookies collect data to enhance your experience and personalize the content and advertising you see.
Visit our Privacy Policy to learn more. By continuing to use the site, you agree to this use of cookies and data.
  • In Latvia
  • List of Countries
  • For 7 days
  • Water Temperature
  • Satellite Maps
  • Weather Map
  • Weather Widgets
  • user-avatar
    Login

    Hourly Weather Juwaja

    Today, 26 March, Tuesday

    Time Temperature Precipitation Wind Pressure Humidity
    00:00 +9°C° 0 mm 2 mps 733 mmHg 71%
    01:00 +10°C° 0 mm 2 mps 733 mmHg 72%
    02:00 +10°C° 0 mm 2 mps 733 mmHg 73%
    03:00 +10°C° 0.1 mm 2 mps 733 mmHg 75%
    04:00 +10°C° 0.1 mm 2 mps 733 mmHg 76%
    05:00 +11°C° 0.1 mm 1 mps 734 mmHg 78%
    06:00 +10°C° 0.1 mm 2 mps 734 mmHg 77%
    07:00 +12°C° 0.1 mm 2 mps 735 mmHg 76%
    08:00 +12°C° 0 mm 1 mps 734 mmHg 76%
    09:00 +13°C° 0 mm 2 mps 735 mmHg 73%
    10:00 +14°C° 0 mm 2 mps 735 mmHg 69%
    11:00 +13°C° 0 mm 3 mps 735 mmHg 66%
    12:00 +14°C° 0 mm 3 mps 735 mmHg 64%
    13:00 +14°C° 0 mm 4 mps 735 mmHg 62%
    14:00 +14°C° 0 mm 4 mps 735 mmHg 61%
    15:00 +14°C° 0 mm 3 mps 735 mmHg 62%
    16:00 +14°C° 0 mm 3 mps 735 mmHg 63%
    17:00 +14°C° 0 mm 2 mps 735 mmHg 64%
    18:00 +13°C° 0 mm 2 mps 736 mmHg 68%
    19:00 +12°C° 0 mm 2 mps 736 mmHg 72%
    20:00 +10°C° 0 mm 2 mps 736 mmHg 76%
    21:00 +10°C° 0 mm 2 mps 737 mmHg 77%
    22:00 +10°C° 0 mm 2 mps 737 mmHg 78%
    23:00 +10°C° 0 mm 3 mps 737 mmHg 79%

    Tomorrow, 27 March, Wednesday

    Time Temperature Precipitation Wind Pressure Humidity
    00:00 +10°C° 0 mm 3 mps 737 mmHg 80%
    01:00 +10°C° 0 mm 3 mps 737 mmHg 81%
    02:00 +10°C° 0 mm 3 mps 737 mmHg 82%
    03:00 +10°C° 0 mm 3 mps 737 mmHg 83%
    04:00 +10°C° 0 mm 3 mps 737 mmHg 85%
    05:00 +10°C° 0 mm 3 mps 737 mmHg 86%
    06:00 +12°C° 0.2 mm 2 mps 738 mmHg 84%
    07:00 +12°C° 0.2 mm 2 mps 738 mmHg 82%
    08:00 +13°C° 0.2 mm 2 mps 738 mmHg 79%
    09:00 +13°C° 0.5 mm 3 mps 739 mmHg 77%
    10:00 +14°C° 0.5 mm 3 mps 739 mmHg 75%
    11:00 +16°C° 0.5 mm 3 mps 739 mmHg 72%
    12:00 +16°C° 0.7 mm 3 mps 739 mmHg 72%
    13:00 +15°C° 0.7 mm 4 mps 739 mmHg 73%
    14:00 +15°C° 0.7 mm 4 mps 739 mmHg 73%
    15:00 +16°C° 0.7 mm 3 mps 739 mmHg 75%
    16:00 +14°C° 0.7 mm 3 mps 739 mmHg 77%
    17:00 +15°C° 0.7 mm 2 mps 739 mmHg 79%
    18:00 +14°C° 0.1 mm 2 mps 739 mmHg 82%
    19:00 +13°C° 0.1 mm 1 mps 739 mmHg 85%
    20:00 +12°C° 0.1 mm 1 mps 740 mmHg 88%
    21:00 +12°C° 0 mm 1 mps 740 mmHg 87%
    22:00 +12°C° 0 mm 1 mps 740 mmHg 86%
    23:00 +12°C° 0 mm 1 mps 740 mmHg 86%

    Day after tomorrow, 28 March, Thursday

    Time Temperature Precipitation Wind Pressure Humidity
    00:00 +12°C° 0 mm 1 mps 740 mmHg 86%
    01:00 +11°C° 0 mm 1 mps 740 mmHg 86%
    02:00 +11°C° 0 mm 1 mps 740 mmHg 86%
    03:00 +10°C° 0 mm 2 mps 740 mmHg 86%
    04:00 +10°C° 0 mm 2 mps 740 mmHg 86%
    05:00 +10°C° 0 mm 2 mps 740 mmHg 86%
    06:00 +12°C° 0 mm 2 mps 740 mmHg 82%
    07:00 +13°C° 0 mm 2 mps 740 mmHg 79%
    08:00 +15°C° 0 mm 2 mps 740 mmHg 76%
    09:00 +16°C° 0 mm 3 mps 740 mmHg 72%
    10:00 +17°C° 0 mm 3 mps 740 mmHg 69%
    11:00 +17°C° 0 mm 4 mps 740 mmHg 65%
    12:00 +18°C° 0 mm 4 mps 740 mmHg 65%
    13:00 +18°C° 0 mm 4 mps 739 mmHg 66%
    14:00 +18°C° 0 mm 4 mps 739 mmHg 66%
    15:00 +17°C° 0 mm 3 mps 738 mmHg 69%
    16:00 +17°C° 0 mm 2 mps 738 mmHg 72%
    17:00 +16°C° 0 mm 1 mps 738 mmHg 75%
    18:00 +15°C° 0 mm 1 mps 738 mmHg 78%
    19:00 +14°C° 0 mm 1 mps 738 mmHg 80%
    20:00 +13°C° 0 mm 1 mps 738 mmHg 82%
    21:00 +13°C° 0 mm 1 mps 738 mmHg 74%
    22:00 +13°C° 0 mm 1 mps 737 mmHg 66%
    23:00 +14°C° 0 mm 1 mps 737 mmHg 58%

    29 March, Friday

    Time Temperature Precipitation Wind Pressure Humidity
    00:00 +14°C° 0 mm 2 mps 737 mmHg 54%
    01:00 +14°C° 0 mm 2 mps 737 mmHg 50%
    02:00 +14°C° 0 mm 2 mps 736 mmHg 46%
    03:00 +13°C° 0.2 mm 3 mps 736 mmHg 50%
    04:00 +12°C° 0.2 mm 3 mps 736 mmHg 55%
    05:00 +12°C° 0.2 mm 3 mps 735 mmHg 60%
    06:00 +13°C° 0.2 mm 4 mps 735 mmHg 63%
    07:00 +13°C° 0.2 mm 4 mps 735 mmHg 67%
    08:00 +14°C° 0.2 mm 5 mps 735 mmHg 71%
    09:00 +15°C° 0 mm 6 mps 734 mmHg 64%
    10:00 +17°C° 0 mm 6 mps 734 mmHg 57%
    11:00 +20°C° 0 mm 7 mps 734 mmHg 51%
    12:00 +19°C° 0.7 mm 6 mps 733 mmHg 57%
    13:00 +17°C° 0.7 mm 6 mps 732 mmHg 62%
    14:00 +16°C° 0.7 mm 5 mps 732 mmHg 68%
    15:00 +16°C° 0.1 mm 5 mps 731 mmHg 67%
    16:00 +17°C° 0.1 mm 5 mps 731 mmHg 66%
    17:00 +17°C° 0.1 mm 5 mps 730 mmHg 66%
    18:00 +17°C° 0.5 mm 4 mps 730 mmHg 68%
    19:00 +16°C° 0.5 mm 3 mps 730 mmHg 71%
    20:00 +16°C° 0.5 mm 2 mps 730 mmHg 74%
    21:00 +15°C° 0.3 mm 2 mps 730 mmHg 75%
    22:00 +15°C° 0.3 mm 2 mps 730 mmHg 76%
    23:00 +15°C° 0.3 mm 2 mps 730 mmHg 77%

    30 March, Saturday

    Time Temperature Precipitation Wind Pressure Humidity
    00:00 +14°C° 1 mm 3 mps 730 mmHg 80%
    01:00 +13°C° 1 mm 3 mps 730 mmHg 82%
    02:00 +13°C° 1 mm 4 mps 730 mmHg 84%
    03:00 +13°C° 0.6 mm 4 mps 730 mmHg 86%
    04:00 +13°C° 0.6 mm 4 mps 729 mmHg 88%
    05:00 +13°C° 0.6 mm 4 mps 729 mmHg 90%
    06:00 +13°C° 0.7 mm 5 mps 730 mmHg 88%
    07:00 +13°C° 0.7 mm 6 mps 730 mmHg 86%
    08:00 +12°C° 0.7 mm 7 mps 730 mmHg 84%
    09:00 +12°C° 0.8 mm 8 mps 730 mmHg 82%
    10:00 +13°C° 0.8 mm 8 mps 730 mmHg 80%
    11:00 +13°C° 0.8 mm 9 mps 730 mmHg 79%
    12:00 +13°C° 0.8 mm 9 mps 729 mmHg 77%
    13:00 +13°C° 0.8 mm 10 mps 729 mmHg 76%
    14:00 +13°C° 0.8 mm 10 mps 729 mmHg 74%
    15:00 +13°C° 0.7 mm 9 mps 729 mmHg 76%
    16:00 +13°C° 0.7 mm 8 mps 729 mmHg 77%
    17:00 +12°C° 0.7 mm 7 mps 729 mmHg 78%
    18:00 +13°C° 0.6 mm 6 mps 730 mmHg 80%
    19:00 +12°C° 0.6 mm 5 mps 730 mmHg 83%
    20:00 +12°C° 0.6 mm 4 mps 730 mmHg 85%
    21:00 +11°C° 0.4 mm 4 mps 730 mmHg 85%
    22:00 +11°C° 0.4 mm 4 mps 730 mmHg 85%
    23:00 +11°C° 0.4 mm 4 mps 730 mmHg 86%

    31 March, Sunday

    Time Temperature Precipitation Wind Pressure Humidity
    00:00 +10°C° 0.3 mm 4 mps 730 mmHg 85%
    01:00 +10°C° 0.3 mm 4 mps 730 mmHg 85%
    02:00 +10°C° 0.3 mm 4 mps 730 mmHg 85%
    03:00 +8°C° 0.2 mm 4 mps 730 mmHg 84%
    04:00 +8°C° 0.2 mm 4 mps 730 mmHg 83%
    05:00 +8°C° 0.2 mm 4 mps 730 mmHg 82%
    06:00 +9°C° 0.1 mm 5 mps 730 mmHg 79%
    07:00 +9°C° 0.1 mm 6 mps 730 mmHg 77%
    08:00 +10°C° 0.1 mm 6 mps 730 mmHg 74%
    09:00 +10°C° 0.6 mm 6 mps 730 mmHg 76%
    10:00 +10°C° 0.6 mm 6 mps 730 mmHg 79%
    11:00 +10°C° 0.6 mm 6 mps 730 mmHg 81%
    12:00 +9°C° 2.4 mm 6 mps 730 mmHg 83%
    13:00 +9°C° 2.4 mm 6 mps 730 mmHg 86%
    14:00 +8°C° 2.4 mm 5 mps 729 mmHg 88%
    15:00 +9°C° 0.8 mm 5 mps 730 mmHg 87%
    16:00 +9°C° 0.8 mm 5 mps 730 mmHg 86%
    17:00 +10°C° 0.8 mm 5 mps 730 mmHg 84%
    18:00 +9°C° 0.8 mm 5 mps 730 mmHg 86%
    19:00 +9°C° 0.8 mm 5 mps 730 mmHg 88%
    20:00 +9°C° 0.8 mm 5 mps 730 mmHg 90%
    21:00 +9°C° 0.6 mm 5 mps 730 mmHg 89%
    22:00 +10°C° 0.6 mm 4 mps 730 mmHg 89%
    23:00 +8°C° 0.6 mm 4 mps 729 mmHg 89%
    Show more